Location: Brunembert
(50.7122°N, 1.8935°E)
Time: 04:04:44
(UTC+00:00)

Cosmos 1844 Rocket - Pass Details

Date: 22 April 2021
Orbit: 825 x 844 km, 71.0° (Epoch: 06 May)

Event Time Altitude Azimuth Distance (km) Brightness Sun altitude
Exits shadow 22:30:54 21° 85° (E) 1,804 4.2 -24.4°
Drops below altitude 10° 22:33:56 10° 53° (NE) 2,437 5.3 -24.6°
Sets 22:36:52 0° 39° (NE) 3,377 6.2 -24.7°
